EW0531 Weather Reports


Display with metric or nautical units.
time (UTC)temp
F
wind
direction
speed
MPH
gust
MPH
rain 1hr
in
rain 24hr
in
rain mn
in
humidity
%
barometer
mb
20260901030104 52 0 0.0 0.0 0.00 0.00 0.00 85 1020.9
20260901025535 52 0 0.0 0.0 0.00 0.00 0.00 85 1020.9
20260901025033 52 0 0.0 0.0 0.00 0.00 0.00 85 1020.9
20260901024556 52 0 0.0 0.0 0.00 0.00 0.00 85 1020.8
20260901024035 52 0 0.0 0.0 0.00 0.00 0.00 85 1020.9
20260901023536 52 0 0.0 0.0 0.00 0.00 0.00 85 1020.9
20260901023057 52 0 0.0 0.0 0.00 0.00 0.00 84 1020.8
20260901022538 52 0 0.0 0.0 0.00 0.00 0.00 84 1020.9
20260901022035 53 0 0.0 0.0 0.00 0.00 0.00 84 1020.9
20260901021604 53 0 0.0 0.0 0.00 0.00 0.00 84 1020.9
20260901021035 53 0 0.0 2.0 0.00 0.00 0.00 84 1020.9
20260901020537 53 0 0.0 2.0 0.00 0.00 0.00 84 1020.9
20260901020058 53 0 0.0 0.0 0.00 0.00 0.00 83 1021.0
20260901015535 53 0 0.0 0.0 0.00 0.00 0.00 83 1020.9
20260901015035 53 0 0.0 0.0 0.00 0.00 0.00 82 1020.8
20260901014608 53 0 0.0 0.0 0.00 0.00 0.00 82 1020.8
20260901014035 53 0 0.0 0.0 0.00 0.00 0.00 82 1020.8
20260901013534 54 0 0.0 0.0 0.00 0.00 0.00 82 1020.7
20260901013116 54 0 0.0 0.0 0.00 0.00 0.00 81 1020.7
20260901012536 54 0 0.0 0.0 0.00 0.00 0.00 81 1020.6
20260901012037 54 0 0.0 0.0 0.00 0.00 0.00 81 1020.7
20260901011613 54 0 0.0 0.0 0.00 0.00 0.00 81 1020.7
20260901011037 55 0 0.0 0.0 0.00 0.00 0.00 81 1020.7
20260901010538 55 0 0.0 0.0 0.00 0.00 0.00 81 1020.6
20260901010114 55 0 0.0 0.0 0.00 0.00 0.00 81 1020.7
20260901005538 55 0 0.0 0.0 0.00 0.01 0.00 81 1020.6
20260901005041 55 0 0.0 0.0 0.00 0.01 0.00 80 1020.7
20260901004602 55 0 0.0 0.0 0.00 0.01 0.00 80 1020.6
20260901004038 55 0 0.0 0.0 0.00 0.01 0.00 80 1020.6
20260901003538 55 0 0.0 0.0 0.00 0.01 0.00 80 1020.6
20260901003056 55 0 0.0 0.0 0.00 0.01 0.00 80 1020.6
20260901002538 55 0 0.0 3.0 0.00 0.01 0.00 80 1020.5
20260901002038 56 0 0.0 3.0 0.00 0.01 0.00 80 1020.6
20260901001555 56 263 1.0 3.0 0.00 0.01 0.00 79 1020.6
20260901001038 56 263 1.0 4.0 0.00 0.01 0.00 79 1020.6
20260901000538 56 263 1.0 4.0 0.00 0.01 0.00 79 1020.7
20260831235538 56 252 1.0 4.0 0.00 0.10 0.00 79 1020.6
20260831235040 56 252 2.0 4.0 0.00 0.10 0.00 79 1020.5
20260831234601 56 252 1.0 4.0 0.00 0.10 0.00 78 1020.5
20260831234037 56 252 1.0 4.0 0.00 0.10 0.00 78 1020.4
20260831233538 56 252 1.0 3.0 0.00 0.10 0.00 78 1020.5
20260831233100 56 252 1.0 3.0 0.00 0.10 0.00 78 1020.5
20260831232537 57 252 1.0 3.0 0.00 0.10 0.00 78 1020.5
20260831232037 57 252 1.0 3.0 0.00 0.10 0.00 77 1020.4
20260831231603 57 252 1.0 3.0 0.00 0.10 0.00 77 1020.5
20260831231037 57 252 1.0 4.0 0.00 0.10 0.00 77 1020.4
20260831230537 57 252 1.0 4.0 0.00 0.10 0.00 77 1020.4
20260831230114 57 252 1.0 4.0 0.00 0.10 0.00 77 1020.5
20260831225536 57 252 1.0 4.0 0.00 0.10 0.10 77 1020.5
20260831225036 58 252 1.0 3.0 0.00 0.10 0.10 76 1020.5
20260831224559 58 252 0.0 3.0 0.00 0.10 0.10 76 1020.5
20260831224042 58 0 1.0 4.0 0.00 0.10 0.10 76 1020.4
20260831223538 58 252 1.0 4.0 0.00 0.10 0.10 76 1020.5
20260831223107 58 252 1.0 4.0 0.00 0.10 0.10 76 1020.5
20260831222537 58 252 0.0 3.0 0.00 0.10 0.10 75 1020.4
20260831222037 59 252 1.0 4.0 0.00 0.10 0.10 75 1020.4
20260831221607 59 252 1.0 4.0 0.00 0.10 0.10 75 1020.4
20260831221036 59 252 1.0 3.0 0.00 0.10 0.10 74 1020.3
20260831220537 59 252 1.0 3.0 0.00 0.10 0.10 74 1020.4
20260831220100 59 288 1.0 3.0 0.00 0.10 0.10 74 1020.4
20260831215538 60 277 0.0 3.0 0.00 0.10 0.10 74 1020.4
20260831215038 60 277 1.0 3.0 0.00 0.10 0.10 73 1020.5
20260831214611 60 273 1.0 4.0 0.00 0.10 0.10 73 1020.3
20260831214037 60 294 1.0 4.0 0.00 0.10 0.10 73 1020.3
20260831213537 60 281 0.0 3.0 0.00 0.10 0.10 73 1020.2
20260831213057 60 0 1.0 3.0 0.00 0.10 0.10 73 1020.1
20260831212537 60 279 0.0 3.0 0.00 0.10 0.10 72 1020.1
20260831212037 60 0 0.0 2.0 0.00 0.10 0.10 72 1020.0
20260831211558 60 279 0.0 2.0 0.00 0.10 0.10 72 1020.0
20260831211037 60 0 0.0 2.0 0.00 0.10 0.10 71 1020.0
20260831210539 60 0 0.0 1.0 0.00 0.10 0.10 71 1020.0
20260831205540 61 0 0.0 3.0 0.00 0.10 0.10 70 1019.9
20260831205037 61 279 1.0 3.0 0.00 0.10 0.10 70 1019.9
20260831204558 61 279 1.0 3.0 0.00 0.10 0.10 70 1019.9
20260831204037 61 279 1.0 3.0 0.00 0.10 0.10 70 1019.7
20260831203537 61 279 1.0 3.0 0.00 0.10 0.10 70 1019.6
20260831203106 62 279 0.0 3.0 0.00 0.10 0.10 69 1019.6
20260831202536 62 279 0.0 4.0 0.00 0.10 0.10 69 1019.6
20260831202041 62 313 0.0 4.0 0.00 0.10 0.10 68 1019.6
20260831201608 62 327 1.0 4.0 0.00 0.10 0.10 68 1019.6
20260831201038 62 300 1.0 4.0 0.00 0.10 0.10 68 1019.5
20260831200537 62 312 2.0 4.0 0.00 0.10 0.10 68 1019.4
20260831200109 63 0 1.0 3.0 0.00 0.10 0.10 68 1019.4
20260831195536 63 315 1.0 4.0 0.00 0.10 0.10 67 1019.4
20260831195037 63 309 1.0 4.0 0.00 0.10 0.10 67 1019.3
20260831194615 63 275 1.0 3.0 0.00 0.10 0.10 67 1019.2
20260831194038 63 270 1.0 4.0 0.00 0.10 0.10 66 1019.2
20260831193538 64 306 1.0 4.0 0.00 0.10 0.10 66 1019.2
20260831193059 64 314 2.0 8.0 0.00 0.10 0.10 65 1019.1
20260831192537 64 303 3.0 9.0 0.00 0.10 0.10 65 1019.0
20260831192038 64 295 3.0 10.0 0.00 0.10 0.10 65 1018.9
20260831191551 64 292 5.0 12.0 0.00 0.10 0.10 64 1018.8
20260831191037 65 302 4.0 12.0 0.00 0.10 0.10 65 1018.8
20260831190537 65 289 3.0 7.0 0.00 0.10 0.10 65 1018.6
20260831190115 65 295 2.0 8.0 0.00 0.10 0.10 65 1018.5
20260831185538 65 303 2.0 8.0 0.00 0.33 0.10 65 1018.5
20260831185037 65 300 3.0 9.0 0.00 0.33 0.10 65 1018.4
20260831184556 66 307 2.0 9.0 0.00 0.33 0.10 65 1018.3
20260831184037 66 294 2.0 9.0 0.00 0.33 0.10 66 1018.2
20260831183539 66 294 3.0 9.0 0.00 0.33 0.10 66 1018.1
20260831183059 66 302 4.0 9.0 0.00 0.33 0.10 65 1018.1
20260831182537 66 340 4.0 11.0 0.00 0.33 0.10 65 1017.9
20260831182037 66 320 5.0 11.0 0.00 0.33 0.10 65 1017.9
20260831181605 67 317 4.0 10.0 0.00 0.33 0.10 65 1017.9
20260831181037 67 294 5.0 10.0 0.00 0.33 0.10 65 1017.9
20260831180536 67 313 4.0 11.0 0.00 0.33 0.10 65 1017.8
20260831180101 67 306 5.0 11.0 0.00 0.33 0.10 65 1017.8
20260831175536 68 296 3.0 10.0 0.00 0.35 0.10 65 1017.6
20260831175041 68 50 4.0 12.0 0.00 0.35 0.10 65 1017.5
20260831174556 68 23 5.0 12.0 0.00 0.35 0.10 65 1017.5
20260831174037 68 14 5.0 12.0 0.00 0.35 0.10 65 1017.5
20260831173537 68 311 5.0 12.0 0.00 0.35 0.10 64 1017.4
20260831173057 68 292 7.0 12.0 0.00 0.35 0.10 64 1017.5
20260831172537 68 309 2.0 14.0 0.00 0.35 0.10 65 1017.5
20260831172037 68 289 4.0 14.0 0.00 0.35 0.10 64 1017.4
20260831171600 69 306 6.0 14.0 0.00 0.35 0.10 64 1017.3
20260831171037 69 339 6.0 14.0 0.00 0.35 0.10 64 1017.4
20260831170537 69 309 8.0 14.0 0.00 0.35 0.10 62 1017.4
20260831170107 69 288 7.0 13.0 0.00 0.35 0.10 61 1017.3
20260831165536 69 321 4.0 11.0 0.00 0.35 0.10 62 1017.3
20260831165037 70 300 4.0 10.0 0.00 0.35 0.10 62 1017.3
20260831164604 70 284 5.0 10.0 0.00 0.35 0.10 62 1017.3
20260831164037 70 323 4.0 10.0 0.00 0.35 0.10 62 1017.2
20260831163538 70 279 6.0 11.0 0.00 0.35 0.10 62 1017.2
20260831163107 70 309 6.0 14.0 0.00 0.35 0.10 62 1017.2
20260831162540 70 302 5.0 14.0 0.00 0.35 0.10 62 1017.2
20260831162033 70 247 7.0 14.0 0.00 0.35 0.10 60 1017.2
20260831161608 71 313 4.0 13.0 0.00 0.35 0.10 60 1017.1
20260831161037 70 282 5.0 15.0 0.00 0.35 0.10 61 1017.0
20260831160537 70 247 4.0 15.0 0.00 0.35 0.10 60 1017.0
20260831160109 70 294 6.0 15.0 0.00 0.35 0.10 60 1017.1
20260831155537 71 297 6.0 16.0 0.00 0.35 0.10 61 1016.9
20260831155037 71 270 8.0 17.0 0.00 0.35 0.10 61 1016.8
20260831154626 71 279 10.0 17.0 0.00 0.35 0.10 60 1016.7
20260831154036 71 342 6.0 14.0 0.00 0.35 0.10 59 1016.7
20260831153537 71 257 4.0 14.0 0.00 0.35 0.10 59 1016.6
20260831153107 71 304 9.0 14.0 0.00 0.35 0.10 58 1016.6
20260831152537 72 278 8.0 17.0 0.00 0.35 0.10 58 1016.6
20260831152037 72 233 5.0 17.0 0.00 0.35 0.10 58 1016.5
20260831151609 72 299 7.0 15.0 0.00 0.35 0.10 59 1016.4
20260831151038 72 317 9.0 16.0 0.00 0.35 0.10 59 1016.4
20260831150537 71 281 8.0 16.0 0.00 0.35 0.10 59 1016.4
20260831150111 71 314 5.0 13.0 0.00 0.35 0.10 61 1016.4
20260831145536 71 279 5.0 13.0 0.00 0.35 0.10 61 1016.4
20260831145037 71 291 6.0 15.0 0.00 0.35 0.10 60 1016.3
20260831144604 71 282 9.0 16.0 0.00 0.35 0.10 59 1016.3
20260831144035 72 317 9.0 16.0 0.00 0.35 0.10 58 1016.2
20260831143537 73 256 7.0 15.0 0.00 0.35 0.10 56 1016.1
20260831143057 73 279 6.0 13.0 0.00 0.35 0.10 58 1016.2
20260831142537 72 269 5.0 14.0 0.00 0.35 0.10 59 1016.0
20260831142037 72 321 3.0 14.0 0.00 0.35 0.10 62 1015.9
20260831141615 71 219 7.0 14.0 0.00 0.35 0.10 62 1016.0
20260831141040 72 333 5.0 12.0 0.00 0.35 0.10 61 1015.9
20260831140537 72 257 4.0 15.0 0.00 0.35 0.10 60 1015.8
20260831135537 73 309 6.0 14.0 0.00 0.35 0.10 58 1015.7
20260831135037 73 304 9.0 14.0 0.00 0.35 0.10 58 1015.5
20260831134606 72 320 6.0 13.0 0.00 0.35 0.10 61 1015.5
20260831134036 71 317 6.0 15.0 0.00 0.35 0.10 63 1015.5
20260831133536 71 294 10.0 15.0 0.00 0.35 0.10 61 1015.5
20260831133110 72 282 6.0 15.0 0.00 0.35 0.10 61 1015.5
20260831132536 73 279 9.0 15.0 0.00 0.35 0.10 59 1015.4
20260831132037 74 264 8.0 15.0 0.00 0.35 0.10 59 1015.2
20260831131607 73 210 6.0 16.0 0.00 0.35 0.10 60 1015.2
20260831131037 72 325 8.0 19.0 0.00 0.35 0.10 61 1015.1
20260831130537 72 334 7.0 19.0 0.00 0.35 0.10 61 1015.1
20260831125537 71 304 7.0 18.0 0.00 0.35 0.10 62 1015.1
20260831125037 71 305 9.0 18.0 0.00 0.35 0.10 62 1015.1
20260831124601 71 248 6.0 12.0 0.00 0.35 0.10 63 1015.0
20260831124038 72 319 5.0 12.0 0.00 0.35 0.10 65 1015.0
20260831123537 72 315 6.0 13.0 0.00 0.35 0.10 63 1015.0
20260831123058 72 298 7.0 13.0 0.00 0.35 0.10 62 1014.9
20260831122540 72 334 6.0 17.0 0.00 0.35 0.10 61 1014.9
20260831122037 71 286 7.0 18.0 0.00 0.35 0.10 62 1014.7
20260831121603 71 286 9.0 21.0 0.00 0.35 0.10 62 1014.8
20260831121037 72 323 9.0 21.0 0.00 0.35 0.10 62 1014.7
20260831120536 71 253 10.0 17.0 0.00 0.35 0.10 62 1014.6
20260831120119 72 300 8.0 15.0 0.00 0.35 0.10 61 1014.5
20260831115536 72 274 7.0 16.0 0.00 0.35 0.10 63 1014.5
20260831115038 72 251 8.0 16.0 0.00 0.35 0.10 62 1014.4
20260831114559 72 296 9.0 16.0 0.00 0.35 0.10 62 1014.3
20260831114037 72 321 8.0 16.0 0.00 0.35 0.10 61 1014.2
20260831113536 72 303 7.0 17.0 0.00 0.35 0.10 60 1014.1
20260831113105 72 244 9.0 17.0 0.00 0.35 0.10 60 1014.2
20260831112538 71 288 5.0 15.0 0.00 0.35 0.10 61 1014.2
20260831112038 71 292 7.0 13.0 0.00 0.35 0.10 62 1014.0
20260831111614 71 306 8.0 12.0 0.00 0.35 0.10 61 1014.0
20260831111037 71 284 7.0 13.0 0.00 0.35 0.10 60 1013.9
20260831110540 72 223 6.0 15.0 0.00 0.35 0.10 60 1013.8
20260831110104 72 291 6.0 15.0 0.00 0.35 0.10 60 1013.7
20260831105541 71 264 6.0 14.0 0.00 0.35 0.10 60 1013.6
20260831105041 71 243 6.0 14.0 0.00 0.35 0.10 61 1013.6
20260831104554 71 308 6.0 17.0 0.00 0.35 0.10 62 1013.7
20260831104037 71 282 8.0 17.0 0.00 0.35 0.10 62 1013.5
20260831103537 70 268 7.0 14.0 0.00 0.35 0.10 64 1013.4
20260831103107 70 290 8.0 18.0 0.00 0.35 0.10 63 1013.3
20260831102537 69 290 9.0 18.0 0.00 0.35 0.10 65 1013.4
20260831102037 69 294 9.0 15.0 0.00 0.35 0.10 64 1013.4
20260831101559 69 278 8.0 17.0 0.00 0.35 0.10 66 1013.2
20260831101039 68 261 7.0 17.0 0.00 0.35 0.10 67 1013.3
20260831100540 68 315 9.0 17.0 0.00 0.35 0.10 67 1013.2
20260831100112 69 316 7.0 17.0 0.00 0.35 0.10 66 1013.2
20260831095536 69 292 9.0 16.0 0.00 0.35 0.10 67 1013.0
20260831095040 68 305 7.0 15.0 0.00 0.35 0.10 67 1012.9
20260831094604 69 239 6.0 14.0 0.00 0.35 0.10 68 1013.0
20260831094039 69 323 5.0 14.0 0.00 0.35 0.10 68 1013.0
20260831093538 68 267 8.0 14.0 0.00 0.35 0.10 69 1012.8
20260831093105 68 290 4.0 14.0 0.00 0.35 0.10 70 1012.7
20260831092537 68 295 5.0 16.0 0.00 0.35 0.10 70 1012.6
20260831092037 68 308 5.0 16.0 0.00 0.35 0.10 70 1012.5
20260831091603 68 256 9.0 16.0 0.00 0.35 0.10 69 1012.5
20260831091037 68 306 7.0 14.0 0.00 0.35 0.10 70 1012.4
20260831090537 68 282 6.0 14.0 0.00 0.35 0.10 71 1012.3
20260831090101 67 269 7.0 16.0 0.00 0.35 0.10 70 1012.3
20260831085539 67 304 7.0 16.0 0.00 0.35 0.10 71 1012.2
20260831085038 67 269 7.0 19.0 0.00 0.35 0.10 71 1012.1
20260831084609 67 305 10.0 19.0 0.00 0.35 0.10 71 1012.1
20260831084037 67 316 5.0 17.0 0.00 0.35 0.10 73 1012.0
20260831083538 66 269 7.0 17.0 0.00 0.35 0.10 73 1011.8
20260831083102 66 290 8.0 17.0 0.00 0.35 0.10 73 1011.8
20260831082535 66 246 5.0 19.0 0.00 0.35 0.10 74 1011.7
20260831082037 65 291 7.0 19.0 0.00 0.35 0.10 74 1011.6
20260831081604 65 275 7.0 14.0 0.00 0.35 0.10 75 1011.6
20260831081035 65 288 7.0 15.0 0.00 0.35 0.10 75 1011.4
20260831080537 65 241 6.0 15.0 0.00 0.35 0.10 76 1011.3
20260831080132 65 205 6.0 13.0 0.00 0.35 0.10 76 1011.4
20260831075537 64 290 6.0 13.0 0.00 0.35 0.10 76 1011.3
20260831075037 64 274 7.0 14.0 0.00 0.35 0.10 76 1011.2
20260831074607 64 233 7.0 14.0 0.00 0.35 0.10 77 1011.1
20260831074037 64 296 7.0 14.0 0.00 0.35 0.10 77 1011.1
20260831073537 63 265 8.0 14.0 0.00 0.35 0.10 77 1010.9
20260831073117 63 279 5.0 12.0 0.00 0.35 0.10 78 1010.9
20260831072536 63 244 7.0 12.0 0.00 0.35 0.10 78 1010.8
20260831072034 63 248 5.0 12.0 0.00 0.35 0.10 79 1010.8
20260831071557 63 253 6.0 12.0 0.00 0.35 0.10 79 1010.8
20260831071034 62 285 5.0 12.0 0.00 0.35 0.10 79 1010.7
20260831070537 62 244 5.0 13.0 0.00 0.35 0.10 79 1010.6
20260831070056 62 247 7.0 13.0 0.00 0.35 0.10 79 1010.4
20260831065536 62 291 3.0 15.0 0.00 0.35 0.10 80 1010.4
20260831065037 62 258 6.0 15.0 0.00 0.35 0.10 80 1010.3
20260831064607 62 271 6.0 15.0 0.00 0.35 0.10 80 1010.2
20260831064036 62 207 5.0 11.0 0.00 0.35 0.10 81 1010.1
20260831063537 61 217 5.0 10.0 0.00 0.35 0.10 81 1010.1
20260831063137 61 273 4.0 10.0 0.00 0.35 0.10 81 1010.0
20260831063106 61 273 4.0 10.0 0.00 0.35 0.10 81 1010.0
20260831062537 61 260 5.0 10.0 0.00 0.35 0.10 82 1010.0
20260831062040 60 272 3.0 9.0 0.00 0.35 0.10 82 1009.9
20260831061605 60 221 4.0 9.0 0.00 0.35 0.10 82 1009.7
20260831061035 60 236 3.0 9.0 0.00 0.35 0.10 82 1009.7
20260831060538 60 264 3.0 9.0 0.00 0.35 0.10 83 1009.5
20260831060111 59 246 3.0 9.0 0.00 0.35 0.10 83 1009.6
20260831055537 59 268 1.0 9.0 0.00 0.35 0.10 83 1009.5
20260831055037 59 253 4.0 9.0 0.00 0.35 0.10 83 1009.4
20260831054601 59 261 3.0 8.0 0.00 0.35 0.10 83 1009.4
20260831054037 59 0 3.0 8.0 0.00 0.35 0.10 83 1009.2
20260831053535 59 257 2.0 7.0 0.00 0.35 0.10 83 1009.1
20260831053105 59 245 3.0 7.0 0.00 0.35 0.10 84 1009.1
20260831052537 59 264 2.0 10.0 0.00 0.35 0.10 84 1009.1
20260831052040 59 246 3.0 10.0 0.00 0.35 0.10 84 1009.0
20260831051602 59 259 0.0 5.0 0.00 0.35 0.10 84 1008.9
20260831051037 59 0 1.0 6.0 0.00 0.35 0.10 83 1008.9
20260831050537 59 0 0.0 6.0 0.00 0.35 0.10 83 1008.8
20260831045535 59 0 0.0 5.0 0.00 0.35 0.10 83 1008.6
20260831045037 59 0 1.0 5.0 0.00 0.35 0.10 83 1008.6
20260831044603 59 0 1.0 4.0 0.00 0.35 0.10 83 1008.5
20260831044038 59 0 0.0 4.0 0.00 0.35 0.10 83 1008.3
20260831043538 59 234 1.0 4.0 0.00 0.35 0.10 83 1008.3
20260831043104 59 268 1.0 4.0 0.00 0.35 0.10 83 1008.2
20260831042537 59 0 0.0 4.0 0.00 0.35 0.10 83 1008.1
20260831042040 59 264 0.0 9.0 0.00 0.35 0.10 83 1008.0
20260831041608 59 0 1.0 9.0 0.00 0.35 0.10 83 1007.9
20260831041037 59 253 4.0 10.0 0.00 0.35 0.10 83 1008.0
20260831040534 59 257 4.0 10.0 0.00 0.35 0.10 83 1008.0
20260831040100 59 207 3.0 10.0 0.00 0.35 0.10 83 1007.9
20260831035534 59 227 2.0 10.0 0.00 0.35 0.10 83 1007.8
20260831035037 59 223 2.0 9.0 0.00 0.35 0.10 83 1007.9
20260831034609 59 257 3.0 10.0 0.00 0.35 0.10 83 1007.8
20260831034037 60 0 2.0 10.0 0.00 0.35 0.10 83 1007.8
20260831033537 60 244 3.0 9.0 0.00 0.35 0.10 83 1007.8
20260831033056 60 240 3.0 9.0 0.00 0.35 0.10 83 1007.8
20260831032534 60 263 4.0 11.0 0.00 0.35 0.10 83 1007.8
20260831032040 60 236 3.0 11.0 0.00 0.35 0.10 83 1007.8
20260831031602 60 251 4.0 12.0 0.00 0.35 0.10 83 1007.8
20260831031037 60 246 4.0 12.0 0.00 0.35 0.10 83 1007.7
20260831030537 60 254 4.0 12.0 0.00 0.35 0.10 84 1007.5